Home   Weather   Bruges   Past weeks

Flag for Belgium Past Weather in Bruges, Belgium — Yesterday and Last 2 Weeks

Now
57 °F

Clear.


Feels Like: 55 °F
Forecast: 54 / 65 °F
Wind: 10 mph from Southwest

Location: Oostende Airport

Current Time: Sep 29, 2016 at 10:35:15 PM

Latest Report: Sep 29, 2016 at 9:50 PM


Visibility: 10 mi

Pressure: 29.98 "Hg

Humidity: 88%

Dew Point: 54 °F

Location of BrugesLocation

Past Weather in Bruges — Graph

°F

Bruges Temperature Yesterday

Maximum temperature yesterday: 72 °F (at 2:20 PM)
Minimum temperature yesterday: 59 °F (at 11:50 PM)
Average temperature yesterday: 64 °F

High & Low Weather Summary for the Past Weeks

 TemperatureHumidityPressure
High81 °F (Sep 15, 2:50 PM)94% (Sep 15, 5:20 AM)30.30 "Hg (Sep 15, 5:20 AM)
Low45 °F (Sep 26, 7:50 AM)38% (Sep 24, 4:50 PM)29.80 "Hg (Sep 15, 4:50 AM)
Average61 °F78%30.09 "Hg
* Reported Sep 14 9:20 PM — Sep 29 9:20 PM, Bruges, Weather by CustomWeather, © 2016

Note: Actual official high and low records may vary slightly from our data, if they occured in-between our weather recording intervals... More about our weather records

Advertising

Bruges Weather History for the Previous 24 Hours

Scroll right to see more
 ConditionsComfort  
Time TempWeatherWind HumidityBarometerVisibility
9:20 PM
Thu, Sep 29
57 °FClear.9 mph88%29.95 "Hg10 mi
8:50 PM57 °FPassing clouds.10 mph94%29.95 "HgN/A
8:20 PM57 °FPassing clouds.10 mph88%29.95 "HgN/A
7:50 PM57 °FPassing clouds.13 mph94%29.95 "HgN/A
7:20 PM59 °FPassing clouds.13 mph88%29.95 "HgN/A
6:50 PM59 °FPassing clouds.13 mph88%29.95 "HgN/A
6:20 PM59 °FPartly sunny.13 mph88%29.95 "HgN/A
5:50 PM59 °FPartly sunny.14 mph94%29.98 "HgN/A
5:20 PM59 °FDrizzle. Partly sunny.15 mph94%29.98 "Hg3 mi
4:50 PM59 °FDrizzle. Broken clouds.18 mph94%29.98 "Hg2 mi
4:20 PM63 °FDrizzle. Broken clouds.20 mph88%29.95 "Hg2 mi
3:50 PM63 °FDrizzle. Partly sunny.22 mph83%29.95 "HgN/A
3:20 PM64 °FPartly sunny.22 mph78%29.95 "HgN/A
2:50 PM64 °FPartly sunny.22 mph78%29.98 "HgN/A
2:20 PM64 °FPartly sunny.21 mph78%29.98 "HgN/A
1:50 PM64 °FPartly sunny.21 mph78%29.98 "HgN/A
1:20 PM64 °FPartly sunny.20 mph78%30.01 "HgN/A
12:50 PM63 °FPartly sunny.20 mph83%30.01 "HgN/A
12:20 PM63 °FPartly sunny.21 mph83%30.01 "HgN/A
11:50 AM63 °FPartly sunny.17 mph83%30.01 "HgN/A
11:20 AM63 °FPartly sunny.17 mph83%30.04 "HgN/A
10:50 AM63 °FPartly sunny.21 mph83%30.01 "HgN/A
10:20 AM63 °FPartly sunny.18 mph83%30.04 "HgN/A
9:50 AM63 °FPartly sunny.20 mph83%30.04 "HgN/A
9:20 AM61 °FScattered clouds.15 mph88%30.04 "HgN/A
8:50 AM59 °FPartly sunny.10 mph88%30.04 "HgN/A
8:20 AM59 °FScattered clouds.10 mph88%30.04 "Hg5 mi
7:50 AM57 °FPassing clouds.12 mph94%30.04 "Hg4 mi
7:20 AM57 °FPassing clouds.9 mph94%30.04 "Hg4 mi
6:50 AM57 °FPassing clouds.9 mph94%30.04 "Hg4 mi
6:20 AM55 °FPassing clouds.10 mph94%30.07 "Hg4 mi
5:50 AM55 °FPassing clouds.12 mph94%30.07 "Hg5 mi
5:20 AM57 °FPassing clouds.12 mph94%30.07 "HgN/A
4:50 AM57 °FPassing clouds.13 mph94%30.09 "HgN/A
4:20 AM57 °FPassing clouds.13 mph88%30.09 "HgN/A
3:50 AM57 °FPassing clouds.12 mph88%30.12 "HgN/A
3:20 AM57 °FPassing clouds.10 mph88%30.12 "HgN/A
2:50 AM57 °FPassing clouds.13 mph88%30.15 "HgN/A
2:20 AM57 °FPassing clouds.12 mph88%30.15 "HgN/A
1:50 AM57 °FPassing clouds.12 mph88%30.15 "HgN/A
1:20 AM57 °FPassing clouds.13 mph88%30.15 "HgN/A
12:50 AM59 °FPassing clouds.15 mph82%30.15 "HgN/A
12:20 AM59 °FPassing clouds.9 mph82%30.18 "HgN/A
11:50 PM
Wed, Sep 28
59 °FPassing clouds.10 mph77%30.18 "HgN/A
11:20 PM61 °FPassing clouds.14 mph77%30.18 "HgN/A
10:50 PM61 °FPassing clouds.12 mph77%30.18 "HgN/A
10:20 PM61 °FPassing clouds.13 mph77%30.21 "HgN/A
Weather by CustomWeather, © 2016

See weather overviewHow to use our weather pages